Flag for Greece Weather past 2 weeks in Kalamaria, Greece

63 °F

Passing clouds.

Feels Like: 63 °F
Forecast: 60 / 68 °F
Wind: 5 mph from Southeast

Location: Thessaloniki Airport

Current Time: Oct 14, 2015 at 12:55:46 AM

Latest Report: Oct 13, 2015 at 11:50 PM

Visibility: N/A

Pressure: 30.12 "Hg

Humidity: 83%

Dew point: 57 °F

Location of KalamariaLocation

Historic Weather in Kalamaria — Graph


Kalamaria temperature yesterday

Maximum temperature yesterday: 75 °F (at 2:20 PM)
Minimum temperature yesterday: 61 °F (at 6:50 AM)
Average temperature yesterday: 67 °F

Past Weeks' High & Low Weather Summary

High79 °F (Oct 6, 2:20 PM)100% (Oct 12, 3:50 AM)30.33 "Hg (Oct 12, 3:50 AM)
Low54 °F (Oct 3, 3:20 AM)39% (Oct 6, 3:50 PM)29.62 "Hg (Oct 11, 5:50 AM)
Average66 °F78%30.03 "Hg
* Reported Sep 28 11:20 PM — Oct 13 11:20 PM, Kalamaria, Weather by CustomWeather, © 2015

Note: Actual official high and low records may vary slightly from our data, if they occured in-between our weather recording intervals... More about our weather records


Kalamaria weather history for previous 24 hours

Time TempWeatherWind HumidityBarometerVisibility
11:20 PM
Tue, Oct 13
64 °FPassing clouds.5 mph83%30.12 "HgN/A
10:50 PM63 °FPassing clouds.3 mph83%30.12 "HgN/A
10:20 PM64 °FPassing clouds.5 mph83%30.12 "HgN/A
9:50 PM64 °FPassing clouds.5 mph78%30.09 "HgN/A
9:20 PM66 °FPassing clouds.6 mph78%30.09 "HgN/A
8:50 PM66 °FPassing clouds.7 mph78%30.09 "HgN/A
8:20 PM66 °FPassing clouds.6 mph73%30.09 "HgN/A
7:50 PM68 °FPassing clouds.8 mph73%30.07 "HgN/A
7:20 PM68 °FPassing clouds.9 mph69%30.07 "HgN/A
6:50 PM68 °FPassing clouds.9 mph69%30.07 "HgN/A
6:20 PM70 °FPassing clouds.12 mph64%30.04 "HgN/A
5:50 PM72 °FPassing clouds.12 mph61%30.04 "HgN/A
5:20 PM73 °FPassing clouds.8 mph61%30.04 "HgN/A
4:50 PM73 °FPassing clouds.5 mph61%30.04 "HgN/A
4:20 PM72 °FPassing clouds.5 mph53%30.04 "HgN/A
3:50 PM72 °FPassing clouds.5 mph57%30.04 "HgN/A
3:20 PM72 °FPassing clouds.5 mph53%30.04 "HgN/A
2:50 PM72 °FPassing clouds.7 mph53%30.04 "HgN/A
2:20 PM75 °FPassing clouds.8 mph54%30.04 "HgN/A
1:50 PM73 °FPassing clouds.8 mph57%30.04 "HgN/A
1:20 PM72 °FPassing clouds.8 mph53%30.07 "HgN/A
12:50 PM70 °FPassing clouds.9 mph57%30.07 "HgN/A
12:20 PM70 °FPassing clouds.9 mph57%30.07 "HgN/A
11:50 AM68 °FPassing clouds.10 mph56%30.07 "HgN/A
11:20 AM66 °FPassing clouds.10 mph68%30.07 "HgN/A
10:50 AM64 °FPassing clouds.3 mph68%30.07 "HgN/A
10:20 AM64 °FPassing clouds.9 mph68%30.07 "HgN/A
9:50 AM63 °FPassing clouds.9 mph68%30.04 "HgN/A
9:20 AM63 °FPassing clouds.8 mph68%30.04 "HgN/A
8:50 AM61 °FPassing clouds.10 mph72%30.04 "HgN/A
8:20 AM61 °FPassing clouds.6 mph77%30.04 "HgN/A
7:50 AM61 °FPassing clouds.6 mph77%30.04 "HgN/A
7:20 AM61 °FClear.12 mph72%30.01 "Hg10 mi
6:50 AM61 °FClear.3 mph77%30.01 "Hg10 mi
6:20 AM63 °FClear.6 mph73%30.01 "Hg10 mi
5:50 AM63 °FClear.7 mph73%30.01 "Hg10 mi
5:20 AM63 °FPassing clouds.10 mph77%29.98 "HgN/A
4:20 AM64 °FPassing clouds.12 mph78%29.98 "HgN/A
3:50 AM64 °FPassing clouds.12 mph78%29.98 "HgN/A
3:20 AM64 °FPassing clouds.16 mph78%29.98 "HgN/A
2:50 AM64 °FPassing clouds.23 mph78%29.98 "HgN/A
2:20 AM66 °FPassing clouds.14 mph73%29.98 "HgN/A
1:50 AM66 °FPassing clouds.12 mph73%29.98 "HgN/A
1:20 AM66 °FPassing clouds.9 mph83%29.95 "HgN/A
12:50 AM66 °FPassing clouds.13 mph78%29.95 "HgN/A
Weather by CustomWeather, © 2015

See weather overviewHow to use our weather pages